Change the Weather History Date:

Sunday, July 14, 2013

  Actual Average (KPKB) Record (KPKB)
Temperature  
Mean Temperature 77 °F 75 °F  
Max Temperature 88 °F 85 °F 103 °F (1936)
Min Temperature 66 °F 64 °F 50 °F (2009)
Degree Days  
Heating Degree Days 0 0  
Cooling Degree Days 12 10  
Growing Degree Days 27 (Base 50)    
Moisture  
Dew Point 68 °F    
Average Humidity 72    
Maximum Humidity 93    
Minimum Humidity 51    
Precipitation  
Precipitation 0.00 in 0.14 in 1.50 in (1985)
Sea Level Pressure  
Sea Level Pressure 30.22 in    
Wind  
Wind Speed 3 mph (SE)    
Max Wind Speed 10 mph    
Max Gust Speed 17 mph    
Visibility 10 miles    
Events      
T = Trace of Precipitation, MM = Missing Value Source: NWS Daily Summary

Daily Weather History Graph

Daily Weather History Graph

Search for Another Location

Airport or City:

Trip Planner

Search our weather history database for the weather conditions in past years. The results will help you decide how hot, cold, wet, or windy it might be!

Date:

Astronomy

Jul. 14, 2013 Rise Set
Actual Time 6:14 AM EDT 8:54 PM EDT
Civil Twilight 5:43 AM EDT 9:26 PM EDT
Nautical Twilight 5:03 AM EDT 10:05 PM EDT
Astronomical Twilight 4:19 AM EDT 10:49 PM EDT
Moon 12:27 PM EDT (7/14) No Moon Set
Length of Visible Light 15h 43m
Length of Day
14h 40m
Waxing Crescent, 35% of the Moon is Illuminated
Jul 14
Waxing Crescent
Jul 15
First Quarter
Jul 22
Full
Jul 29
Last Quarter
Aug 6
New

Hourly Weather History & Observations

Time (EDT) Temp. Heat Index Dew Point Humidity Pressure Visibility Wind Dir Wind Speed Gust Speed Precip Events Conditions
12:15 AM 69.6 °F - 66.4 °F 89% 30.19 in 10.0 mi Calm Calm - N/A   Clear
12:35 AM 69.1 °F - 66.4 °F 91% 30.18 in 10.0 mi Calm Calm - N/A   Clear
12:55 AM 69.6 °F - 66.6 °F 90% 30.18 in 10.0 mi Calm Calm - N/A   Clear
1:15 AM 70.3 °F - 66.4 °F 87% 30.18 in 10.0 mi Calm Calm - N/A   Clear
1:35 AM 69.8 °F - 66.0 °F 88% 30.18 in 10.0 mi Calm Calm - N/A   Clear
1:55 AM 69.3 °F - 66.0 °F 89% 30.18 in 10.0 mi Calm Calm - N/A   Clear
2:15 AM 67.6 °F - 65.3 °F 92% 30.18 in 10.0 mi Calm Calm - N/A   Clear
2:35 AM 68.0 °F - 65.7 °F 92% 30.18 in 10.0 mi Calm Calm - N/A   Clear
2:55 AM 68.4 °F - 65.7 °F 91% 30.18 in 10.0 mi ENE 3.5 mph - N/A   Clear
3:15 AM 68.4 °F - 65.8 °F 92% 30.17 in 10.0 mi Calm Calm - N/A   Clear
3:35 AM 68.0 °F - 65.3 °F 91% 30.17 in 10.0 mi NE 3.5 mph - N/A   Clear
3:55 AM 68.5 °F - 66.2 °F 92% 30.18 in 10.0 mi Calm Calm - N/A   Clear
4:15 AM 68.0 °F - 65.3 °F 91% 30.18 in 10.0 mi Calm Calm - N/A   Scattered Clouds
4:35 AM 67.1 °F - 64.8 °F 92% 30.18 in 10.0 mi Calm Calm - N/A   Clear
4:55 AM 66.6 °F - 64.6 °F 93% 30.18 in 10.0 mi Calm Calm - N/A   Clear
5:15 AM 68.4 °F - 65.5 °F 90% 30.18 in 10.0 mi Calm Calm - N/A   Clear
5:35 AM 68.0 °F - 64.9 °F 90% 30.19 in 10.0 mi Calm Calm - N/A   Clear
5:55 AM 68.0 °F - 65.3 °F 91% 30.20 in 10.0 mi Calm Calm - N/A   Clear
6:15 AM 66.9 °F - 64.6 °F 92% 30.20 in 10.0 mi Calm Calm - N/A   Clear
6:35 AM 68.4 °F - 65.7 °F 91% 30.20 in 10.0 mi Calm Calm - N/A   Clear
6:55 AM 70.3 °F - 66.7 °F 88% 30.21 in 10.0 mi ESE 3.5 mph - N/A   Clear
7:15 AM 73.6 °F - 66.6 °F 79% 30.21 in 10.0 mi ESE 4.6 mph - N/A   Clear
7:35 AM 75.2 °F - 66.4 °F 74% 30.22 in 10.0 mi ESE 3.5 mph - N/A   Clear
7:55 AM 76.1 °F - 66.7 °F 73% 30.22 in 10.0 mi ESE 4.6 mph - N/A   Clear
8:15 AM 76.5 °F - 66.7 °F 72% 30.23 in 10.0 mi ESE 4.6 mph - N/A   Clear
8:35 AM 77.4 °F - 66.7 °F 70% 30.23 in 10.0 mi SE 5.8 mph - N/A   Clear
8:55 AM 79.2 °F - 67.1 °F 66% 30.23 in 10.0 mi SSE 5.8 mph - N/A   Clear
9:15 AM 79.3 °F - 66.2 °F 64% 30.24 in 10.0 mi SE 10.4 mph - N/A   Clear
9:35 AM 80.6 °F 82.7 °F 66.2 °F 61% 30.24 in 10.0 mi SE 6.9 mph - N/A   Scattered Clouds
9:55 AM 80.6 °F 82.8 °F 66.4 °F 62% 30.24 in 10.0 mi SSE 5.8 mph - N/A   Scattered Clouds
10:15 AM 81.3 °F 83.6 °F 66.9 °F 61% 30.24 in 10.0 mi SE 5.8 mph - N/A   Clear
10:35 AM 81.9 °F 84.2 °F 66.7 °F 60% 30.24 in 10.0 mi SSE 9.2 mph - N/A   Clear
10:55 AM 82.0 °F 84.5 °F 66.7 °F 60% 30.25 in 10.0 mi SE 9.2 mph 16.1 mph N/A   Clear
11:15 AM 83.1 °F 85.9 °F 67.6 °F 59% 30.25 in 10.0 mi SE 8.1 mph - N/A   Clear
11:35 AM 83.3 °F 85.9 °F 67.3 °F 58% 30.25 in 10.0 mi SE 9.2 mph - N/A   Clear
11:55 AM 83.5 °F 85.7 °F 66.2 °F 56% 30.24 in 10.0 mi South 9.2 mph 17.3 mph N/A   Scattered Clouds
12:15 PM 83.3 °F 85.7 °F 66.7 °F 57% 30.24 in 10.0 mi SE 5.8 mph - N/A   Clear
12:35 PM 84.2 °F 87.3 °F 68.0 °F 58% 30.24 in 10.0 mi SSE 9.2 mph - N/A   Clear
12:55 PM 85.5 °F 89.1 °F 68.7 °F 57% 30.24 in 10.0 mi SSE 8.1 mph - N/A   Clear
1:15 PM 85.5 °F 88.5 °F 67.6 °F 55% 30.24 in 10.0 mi SSE 8.1 mph 16.1 mph N/A   Scattered Clouds
1:35 PM 86.2 °F 89.4 °F 67.6 °F 54% 30.24 in 10.0 mi SSE 9.2 mph - N/A   Scattered Clouds
1:55 PM 86.0 °F 89.1 °F 67.8 °F 54% 30.24 in 10.0 mi SSE 10.4 mph - N/A   Scattered Clouds
2:15 PM 86.2 °F 89.4 °F 68.0 °F 54% 30.24 in 10.0 mi SE 4.6 mph - N/A   Mostly Cloudy
2:35 PM 86.0 °F 89.7 °F 68.7 °F 56% 30.24 in 10.0 mi ESE 8.1 mph - N/A   Mostly Cloudy
2:55 PM 86.4 °F 90.4 °F 68.9 °F 56% 30.24 in 10.0 mi ESE 8.1 mph - N/A   Mostly Cloudy
3:15 PM 86.7 °F 90.6 °F 68.5 °F 55% 30.23 in 10.0 mi SE 5.8 mph - N/A   Scattered Clouds
3:35 PM 87.4 °F 91.5 °F 68.7 °F 54% 30.23 in 10.0 mi SSE 8.1 mph - N/A   Scattered Clouds
3:55 PM 87.1 °F 91.3 °F 69.1 °F 55% 30.22 in 10.0 mi SE 3.5 mph - N/A   Mostly Cloudy
4:15 PM 88.2 °F 92.5 °F 68.9 °F 53% 30.22 in 10.0 mi SSE 6.9 mph - N/A   Scattered Clouds
4:35 PM 88.9 °F 93.0 °F 68.9 °F 51% 30.22 in 10.0 mi SSE 5.8 mph - N/A   Scattered Clouds
4:55 PM 88.0 °F 92.5 °F 69.3 °F 54% 30.22 in 10.0 mi South 5.8 mph - N/A   Scattered Clouds
5:15 PM 88.5 °F 92.7 °F 68.9 °F 52% 30.22 in 10.0 mi SE 5.8 mph - N/A   Scattered Clouds
5:35 PM 88.5 °F 92.3 °F 68.4 °F 51% 30.22 in 10.0 mi SSE 4.6 mph - N/A   Scattered Clouds
5:55 PM 88.7 °F 92.6 °F 68.2 °F 51% 30.22 in 10.0 mi SSE 5.8 mph - N/A   Scattered Clouds
6:15 PM 87.6 °F 91.5 °F 68.7 °F 53% 30.21 in 10.0 mi SE 6.9 mph - N/A   Scattered Clouds
6:35 PM 87.4 °F 91.2 °F 68.4 °F 53% 30.21 in 10.0 mi SE 5.8 mph - N/A   Clear
6:55 PM 87.4 °F 91.5 °F 69.1 °F 54% 30.21 in 10.0 mi SSE 3.5 mph - N/A   Clear
7:15 PM 86.9 °F 91.0 °F 68.9 °F 55% 30.22 in 10.0 mi SE 3.5 mph - N/A   Clear
7:35 PM 86.2 °F 90.4 °F 69.1 °F 57% 30.22 in 10.0 mi Calm Calm - N/A   Clear
7:55 PM 85.3 °F 89.1 °F 69.1 °F 58% 30.22 in 10.0 mi Calm Calm - N/A   Clear
8:15 PM 84.6 °F 88.5 °F 69.1 °F 60% 30.22 in 10.0 mi Calm Calm - N/A   Clear
8:35 PM 82.6 °F 87.1 °F 70.9 °F 68% 30.23 in 10.0 mi Calm Calm - N/A   Clear
8:55 PM 80.2 °F 84.2 °F 72.1 °F 76% 30.23 in 10.0 mi Calm Calm - N/A   Clear
9:15 PM 77.9 °F - 71.6 °F 81% 30.24 in 10.0 mi Calm Calm - N/A   Clear
9:35 PM 77.2 °F - 71.4 °F 82% 30.25 in 2.0 mi Calm Calm - N/A   Haze
9:55 PM 75.6 °F - 71.6 °F 87% 30.26 in 0.8 mi Calm Calm - N/A   Mostly Cloudy
10:15 PM 76.1 °F - 71.1 °F 84% 30.26 in 5.0 mi Calm Calm - N/A   Haze
10:35 PM 75.2 °F - 71.4 °F 88% 30.26 in 10.0 mi Calm Calm - N/A   Overcast
10:55 PM 75.2 °F - 71.2 °F 87% 30.27 in 10.0 mi Calm Calm - N/A   Overcast
11:15 PM 74.7 °F - 70.9 °F 88% 30.26 in 10.0 mi Calm Calm - N/A   Mostly Cloudy
11:35 PM 74.3 °F - 70.7 °F 88% 30.26 in 10.0 mi Calm Calm - N/A   Scattered Clouds
11:55 PM 72.9 °F - 69.8 °F 90% 30.27 in 10.0 mi Calm Calm - N/A   Clear